Location: *
(42.3442°N, 9.2072°E)
Time: 10:10:02
(UTC+00:00)

Cosmos 1703 - Pass Details

Date: 09 April 2020
Orbit: 523 x 541 km, 82.5° (Epoch: 04 June)

Event Time Altitude Azimuth Distance (km) Brightness Sun altitude
Rises 18:59:47 0° 350° (N) 2,706 7.3 -11.7°
Reaches altitude 10° 19:01:56 10° 350° (N) 1,811 6.4 -12.0°
Maximum altitude 19:05:55 80° 264° (W) 556 3.4 -12.7°
Drops below altitude 10° 19:09:53 10° 177° (S) 1,799 5.7 -13.4°
Enters shadow 19:11:37 - 176° (S) 2,521 6.4 -13.7°
